[[{"header":{"parameterUnit":"m.s-1","parameterCategory":1,"la1":30.2991,"la2":30.254,"lo1":-89.0895,"lo2":-89.0444,"dy":0.0017,"dx":0.0017,"nx":28,"ny":28,"refTime":"2025-04-19T03:00:00:Z","depth":0,"parameterNumber":2,"parameterNumberName":"U-component_of_WINDS"},"data":[0,0,0,0,0,0,0,0,0,0,0,0,0,0,0,0,0,0,0,0,0,0,0,0,0,0,0,0,0,0,0,0,0,0,0,0,0,0,0,0,0,0,0,0,0,0,0,0,0,0,0,0,0,0,0,0,0,0,-5.7999,-5.8,0,-5.8079,-5.808,-5.8081,-5.8049,-5.8047,-5.8045,-5.8043,-5.8124,-5.8128,-5.8132,0,0,0,0,0,0,0,0,0,0,0,0,0,-5.7819,-5.7823,-5.7999,-5.8,-5.8001,-5.8079,-5.808,-5.8081,-5.8049,-5.8047,-5.8045,-5.8042,-5.8123,-5.8127,-5.8132,0,0,0,0,0,0,0,0,0,0,0,0,0,-5.7898,-5.7824,-5.7999,-5.7995,-5.7995,-5.8078,-5.808,-5.8081,-5.805,-5.8047,-5.8044,-5.8041,-5.8121,-5.8127,-5.8133,-5.8224,0,0,-5.815,-5.8153,0,0,0,0,0,0,0,0,-5.7894,-5.7905,-5.7994,-5.7995,-5.7996,-5.8051,-5.8046,-5.8129,-5.805,-5.8029,-5.8043,-5.804,-5.8102,-5.8109,-5.813,-5.8228,-5.8232,-5.8151,-5.8154,-5.8157,-5.8159,0,0,0,0,0,0,0,-5.7888,-5.7901,-5.803,-5.7995,-5.7996,-5.7989,-5.7997,-5.8061,-5.808,-5.803,-5.8028,-5.8038,-5.8102,-5.8125,-5.8132,-5.8233,-5.8151,-5.8156,-5.8159,-5.8162,-5.8411,-5.8414,0,0,0,0,0,0,-5.7883,-5.7897,-5.8028,-5.8033,-5.7937,-5.7994,-5.8003,-5.8036,-5.8079,-5.8083,-5.8041,-5.8037,-5.8116,-5.8125,-5.8135,-5.8244,-5.8157,-5.8162,-5.8166,-5.8408,-5.8412,-5.8415,0,0,0,0,0,0,-5.7879,-5.7895,-5.8025,-5.7964,-5.798,-5.8,-5.8037,-5.8039,-5.8062,-5.8087,-5.809,-5.8061,-5.8114,-5.8126,-5.8202,-5.8246,-5.8165,-5.817,-5.8404,-5.8409,-5.8413,-5.8464,0,0,0,0,0,0,-5.7874,-5.7893,-5.7928,-5.7965,-5.7984,-5.8091,-5.804,-5.8043,-5.8072,-5.8068,-5.8106,-5.811,-5.8113,-5.8194,-5.8208,-5.8253,-5.8175,-5.84,-5.8406,-5.8412,-5.8459,-5.847,-5.848,0,0,0,0,0,-5.7867,-5.7939,-5.793,-5.7946,-5.8028,-5.8094,-5.8104,-5.8106,-5.8076,-5.8111,-5.8127,-5.8109,-5.824,-5.8202,-5.8218,-5.8265,-5.8397,-5.8404,-5.8411,-5.8454,-5.8468,-5.848,0,0,0,0,0,0,-5.7905,-5.7944,-5.7934,-5.802,-5.8054,-5.8088,-5.8132,-5.8121,-5.8164,-5.8157,-5.8158,-5.8167,-5.8246,-5.8264,-5.822,-5.8357,-5.8314,-5.8325,-5.8341,-5.8355,-5.8365,-5.8357,-5.818,0,0,0,0,0,-5.7924,-5.7975,-5.8006,-5.8078,-5.8096,-5.8112,-5.8141,-5.814,-5.8174,-5.8188,-5.821,-5.8245,-5.8294,-5.8326,-5.8372,-5.8463,-5.847,-5.8503,-5.8514,-5.8522,-5.853,-5.8579,-5.8593,-5.8438,-5.8438,-5.8438,0,0,-5.7962,-5.799,-5.8021,-5.8087,-5.8113,-5.8165,-5.8124,-5.8181,-5.8219,-5.8197,-5.8269,-5.8288,-5.8326,-5.841,-5.8448,-5.8427,-5.8576,-5.8531,-5.8538,-5.8541,-5.8588,-5.8602,-5.8615,-5.8443,-5.8442,-5.8441,0,0,-5.8058,-5.8085,-5.8148,-5.8176,-5.8216,-5.8227,-5.8242,-5.8279,-5.829,-5.8364,-5.8348,-5.8395,-5.8479,-5.8507,-5.8533,-5.8643,-5.8627,-5.8658,-5.8712,-5.8759,-5.8772,-5.8782,-5.882,-5.8833,-5.8667,-5.8667,-5.8667,0,-5.81,-5.8178,-5.8182,-5.824,-5.8269,-5.8254,-5.8317,-5.8344,-5.8398,-5.8418,-5.8395,-5.8501,-5.8526,-5.8616,-5.8643,-5.8665,-5.8682,-5.8652,-5.877,-5.8781,-5.8791,-5.8826,-5.8841,-5.867,-5.867,-5.867,-5.8669,0,-5.8227,-5.8282,-5.8328,-5.8381,-5.8416,-5.8477,-5.8489,-5.8524,-5.8522,-5.8535,-5.861,-5.8641,-5.8693,-5.8715,-5.8712,-5.8805,-5.879,-5.8769,-5.8726,-5.8809,-5.8842,-5.8856,-5.8675,-5.8674,-5.8673,-5.8672,0,0,-5.8345,-5.8401,-5.8417,-5.8441,-5.8487,-5.8529,-5.859,-5.8642,-5.8671,-5.871,-5.876,-5.8834,-5.8815,-5.8844,-5.8845,-5.8887,-5.8971,-5.8861,-5.8861,-5.8878,-5.9073,-5.9086,-5.9102,-5.8963,-5.8965,-5.8967,-5.9069,0,-5.8442,-5.8548,-5.8554,-5.8651,-5.8701,-5.8689,-5.8742,-5.8775,-5.879,-5.8835,-5.8852,-5.8903,-5.8875,-5.8892,-5.8934,-5.8952,-5.9009,-5.8945,-5.9008,-5.901,-5.8995,-5.912,-5.9134,-5.9227,-5.9082,-5.9084,-5.9086,0,-5.8568,-5.8611,-5.8713,-5.8752,-5.8773,-5.882,-5.8869,-5.8913,-5.8951,-5.8959,-5.8993,-5.8989,-5.9052,-5.901,-5.9096,-5.9052,-5.9079,-5.9092,-5.9096,-5.9099,-5.905,-5.9123,-5.9258,-5.927,-5.9107,-5.9105,-5.9104,0,-5.8641,-5.8725,-5.8796,-5.8817,-5.8865,-5.8899,-5.892,-5.8956,-5.8987,-5.9031,-5.9051,-5.9101,-5.9128,-5.9167,-5.9176,-5.9145,-5.9262,-5.9221,-5.9269,-5.9269,-5.9291,-5.9288,-5.9428,-5.9314,-5.9314,-5.9314,-5.9313,0,-5.8746,-5.8808,-5.8829,-5.8873,-5.8942,-5.895,-5.9018,-5.9038,-5.9071,-5.9118,-5.9112,-5.9156,-5.9168,-5.9215,-5.9223,-5.9293,-5.9306,-5.9313,-5.9314,-5.9311,-5.931,-5.9326,-5.9319,-5.9317,-5.9317,-5.9316,-5.9315,0,-5.8837,-5.8854,-5.8931,-5.8971,-5.8982,-5.9031,-5.9066,-5.9108,-5.9123,-5.9183,-5.9197,-5.9221,-5.9276,-5.9291,-5.9357,-5.9363,-5.9444,-5.9441,-5.943,-5.9429,-5.9476,-5.947,-5.9628,-5.9648,-5.9523,-5.9525,-5.9526,0,-5.8902,-5.8949,-5.8995,-5.9026,-5.9049,-5.91,-5.9132,-5.9143,-5.9177,-5.9226,-5.9262,-5.9316,-5.936,-5.9449,-5.9472,-5.9522,-5.9518,-5.957,-5.9525,-5.9522,-5.9516,-5.9511,-5.9515,-5.9577,-5.9578,-5.958,-5.958,0,-5.9013,-5.902,-5.9067,-5.9117,-5.9156,-5.9196,-5.9234,-5.926,-5.9277,-5.9315,-5.9372,-5.9406,-5.9474,-5.9528,-5.958,-5.9602,-5.9594,-5.9595,-5.9609,-5.9605,-5.9596,-5.9599,-5.945,-5.959,-5.9589,-5.9589,-5.9588,-5.9588,-5.9091,-5.9132,-5.9171,-5.9224,-5.9254,-5.9291,-5.9332,-5.9354,-5.9401,-5.9457,-5.9461,-5.9522,-5.9561,-5.963,-5.9656,-5.9704,-5.9688,-5.9708,-5.9712,-5.9716,-5.9719,-5.9592,-5.9714,-5.9713,-5.9713,-5.9713,-5.9713,0,-5.92,-5.9225,-5.9274,-5.9328,-5.937,-5.9361,-5.9403,-5.9438,-5.9492,-5.9529,-5.9573,-5.9638,-5.9692,-5.972,-5.9773,-5.9806,-5.9804,-5.9819,-5.9815,-5.982,-5.9731,-5.9713,-5.982,-5.982,-5.982,-5.982,-5.982,-5.982,-5.9262,-5.9331,-5.9343,-5.9427,-5.9452,-5.9512,-5.9537,-5.957,-5.96,-5.9673,-5.9717,-5.9737,-5.9771,-5.9826,-5.9875,-5.9882,-5.99,-5.9917,-5.9922,-5.9838,-5.9826,-5.9816,-5.9799,-5.9922,-5.9922,-6.0007,-6.0008,-6.0008]},{"header":{"parameterUnit":"m.s-1","parameterCategory":1,"la1":30.2991,"la2":30.254,"lo1":-89.0895,"lo2":-89.0444,"dy":0.0017,"dx":0.0017,"nx":28,"ny":28,"refTime":"2025-04-19T03:00:00:Z","depth":0,"parameterNumber":3,"parameterNumberName":"V-component_of_WINDS"},"data":[0,0,0,0,0,0,0,0,0,0,0,0,0,0,0,0,0,0,0,0,0,0,0,0,0,0,0,0,0,0,0,0,0,0,0,0,0,0,0,0,0,0,0,0,0,0,0,0,0,0,0,0,0,0,0,0,0,0,3.9037,3.9038,0,3.9166,3.9167,3.9169,3.9228,3.9228,3.9228,3.9228,3.9356,3.936,3.9363,0,0,0,0,0,0,0,0,0,0,0,0,0,3.8838,3.8841,3.9037,3.9038,3.904,3.9166,3.9167,3.9169,3.9228,3.9228,3.9228,3.9228,3.9355,3.9359,3.9364,0,0,0,0,0,0,0,0,0,0,0,0,0,3.8941,3.8842,3.9036,3.9085,3.909,3.9165,3.9167,3.917,3.9228,3.9228,3.9228,3.9228,3.9354,3.9359,3.9364,3.94,0,0,3.938,3.9383,0,0,0,0,0,0,0,0,3.8935,3.8948,3.9076,3.9081,3.9088,3.9181,3.9145,3.9247,3.9228,3.9176,3.9228,3.9227,3.9298,3.9308,3.9332,3.9406,3.9412,3.9381,3.9384,3.9386,3.9388,0,0,0,0,0,0,0,3.8928,3.8943,3.9088,3.9078,3.9085,3.9099,3.9113,3.9164,3.9236,3.918,3.9185,3.9199,3.9301,3.9327,3.9336,3.9414,3.9381,3.9386,3.9389,3.9391,3.9523,3.9524,0,0,0,0,0,0,3.8914,3.8937,3.9084,3.9092,3.901,3.9102,3.9119,3.9151,3.9236,3.9248,3.9199,3.9202,3.9318,3.9329,3.934,3.9389,3.9386,3.9391,3.9394,3.9523,3.9523,3.9524,0,0,0,0,0,0,3.8909,3.8926,3.9078,3.9016,3.9036,3.9106,3.9142,3.9154,3.918,3.925,3.9263,3.9213,3.9318,3.9333,3.9385,3.9394,3.9394,3.9399,3.9523,3.9523,3.9524,3.9484,0,0,0,0,0,0,3.8903,3.8924,3.8939,3.9016,3.9039,3.9122,3.9142,3.9156,3.9189,3.9193,3.9266,3.9278,3.9319,3.9377,3.939,3.9401,3.9403,3.9522,3.9523,3.9523,3.9485,3.9483,3.9482,0,0,0,0,0,3.8896,3.8922,3.894,3.8957,3.906,3.9122,3.9136,3.9184,3.9189,3.9205,3.925,3.9276,3.939,3.9382,3.9397,3.941,3.9522,3.9523,3.9523,3.9486,3.9484,3.9482,0,0,0,0,0,0,3.8844,3.8933,3.8954,3.9006,3.9056,3.9132,3.9153,3.918,3.9229,3.923,3.9286,3.9302,3.9349,3.9385,3.9374,3.9449,3.9458,3.9462,3.9424,3.9423,3.9421,3.9412,3.9407,0,0,0,0,0,3.8839,3.8884,3.8958,3.8997,3.9022,3.9083,3.9112,3.9144,3.9198,3.9219,3.9269,3.9319,3.9366,3.9396,3.9444,3.949,3.9507,3.9506,3.9504,3.9503,3.9506,3.9532,3.9533,3.9526,3.9526,3.9526,0,0,3.8829,3.8883,3.8907,3.8988,3.9031,3.9075,3.91,3.9146,3.9178,3.9226,3.9279,3.9316,3.9376,3.9425,3.9449,3.9456,3.9511,3.9504,3.9502,3.9506,3.9533,3.9534,3.9534,3.9527,3.9527,3.9527,0,0,3.8833,3.8878,3.8916,3.8958,3.9023,3.9064,3.9072,3.9145,3.9172,3.9226,3.9262,3.9301,3.9382,3.9423,3.9454,3.9473,3.9498,3.9486,3.9478,3.9504,3.9504,3.9505,3.9512,3.9514,3.9489,3.9489,3.9489,0,3.8812,3.888,3.8931,3.8975,3.9009,3.9055,3.9093,3.9131,3.9208,3.923,3.9236,3.9338,3.9382,3.9441,3.9446,3.9469,3.9481,3.9479,3.95,3.9502,3.9503,3.951,3.9513,3.9487,3.9487,3.9487,3.9488,0,3.8851,3.8898,3.892,3.8994,3.9031,3.9071,3.9127,3.9158,3.9187,3.9226,3.928,3.9333,3.9393,3.9409,3.9437,3.9472,3.9475,3.949,3.9501,3.9501,3.9509,3.9512,3.9484,3.9485,3.9486,3.9486,0,0,3.8827,3.8929,3.8936,3.897,3.9045,3.9082,3.9123,3.9182,3.9207,3.9258,3.9294,3.9361,3.9376,3.9411,3.9444,3.9466,3.9478,3.9479,3.9481,3.9477,3.952,3.9509,3.9511,3.9495,3.9495,3.9496,3.9515,0,3.8842,3.8921,3.8968,3.9027,3.907,3.9114,3.915,3.9199,3.9237,3.9278,3.9319,3.9366,3.9382,3.9403,3.9427,3.9471,3.9487,3.947,3.9528,3.953,3.9513,3.9515,3.9504,3.9519,3.9518,3.9519,3.9519,0,3.887,3.8921,3.8985,3.9055,3.9075,3.9107,3.9164,3.9204,3.9259,3.9285,3.9325,3.9358,3.9402,3.9409,3.9471,3.9458,3.9485,3.9509,3.9511,3.9519,3.9525,3.9524,3.9525,3.9528,3.9525,3.9524,3.9524,0,3.8847,3.8931,3.8981,3.9008,3.909,3.9112,3.9147,3.9203,3.9235,3.9285,3.9306,3.936,3.9389,3.9429,3.9476,3.9476,3.9533,3.9543,3.9555,3.9554,3.9566,3.9565,3.9572,3.9581,3.9581,3.9581,3.9581,0,3.8859,3.8896,3.8971,3.9002,3.9045,3.9097,3.9138,3.9176,3.9225,3.9263,3.9303,3.9337,3.9396,3.9437,3.9473,3.9519,3.9532,3.9553,3.9562,3.955,3.9548,3.9569,3.9569,3.9582,3.9582,3.9581,3.9581,0,3.8841,3.8892,3.8949,3.9023,3.9042,3.907,3.9132,3.9163,3.9202,3.9249,3.9263,3.9325,3.9375,3.9425,3.9492,3.9517,3.9562,3.9574,3.9544,3.9549,3.9558,3.9557,3.9581,3.9587,3.959,3.959,3.959,0,3.8845,3.8876,3.8952,3.8981,3.9016,3.9061,3.9095,3.9147,3.918,3.9245,3.9268,3.9321,3.9367,3.9445,3.9495,3.9547,3.9561,3.9566,3.9569,3.9556,3.9562,3.956,3.9563,3.9564,3.9564,3.9564,3.9563,0,3.8848,3.8873,3.892,3.8976,3.9015,3.9062,3.911,3.913,3.9191,3.9226,3.9279,3.9315,3.9384,3.9436,3.9494,3.9528,3.9556,3.9562,3.9568,3.9556,3.9537,3.9548,3.954,3.9561,3.9562,3.9562,3.9562,3.9562,3.8843,3.8871,3.893,3.8981,3.9023,3.9067,3.9099,3.9143,3.9188,3.9249,3.9277,3.933,3.9384,3.9464,3.9498,3.954,3.9547,3.9555,3.9557,3.9558,3.9556,3.953,3.955,3.955,3.955,3.9551,3.9551,0,3.8848,3.8888,3.8935,3.9001,3.9041,3.9064,3.9118,3.915,3.9196,3.9245,3.929,3.935,3.9401,3.9454,3.9508,3.9531,3.9545,3.9543,3.9543,3.955,3.9546,3.9536,3.9531,3.9531,3.9531,3.9531,3.9531,3.9531,3.8856,3.8906,3.8937,3.9008,3.9047,3.9101,3.9129,3.9169,3.9209,3.9275,3.9318,3.9353,3.9403,3.9461,3.9508,3.9523,3.9541,3.9536,3.9554,3.9549,3.955,3.9552,3.9543,3.9539,3.9539,3.9555,3.9555,3.9555]}]]